Retour au catalogue

QIANFAN-128

ActifCommunicationsPO
NORAD 69074·PAYLOAD·🇨🇳 China

Lancé May 12, 2026 depuis Taiyuan Satellite Launch Center

Loading…

Prochains Passages (prochaines 24 heures)

TLE

FraisSource: Space-Track

Époque: Sep 14, 2026, 21:52 UTC

1 69074U 26104B   26257.91177140  .00000124  00000-0  17310-3 0  9993
2 69074  88.9907 332.3481 0002175 113.9836 246.1543 13.51023121 17258

Suivez QIANFAN-128 en temps réel avec AllMySat

Download on the App Store